{"data":{"norad_id":68956,"intl_designator":"2026-099F","name":"STARLINK-36760","alt_names":[],"object_type":"PAYLOAD","status":"ACTIVE","operator":null,"country":"US","launch_date":"2026-05-01","launch_site_code":"AFETR","launch_vehicle":null,"mission":null,"orbit_class":"UNKNOWN","rcs_meters":null,"size_class":null,"mass_kg":null,"dimensions":null,"purposes":["comms"],"wikipedia_slug":null,"has_3d_model":false,"image_url":null,"decayed_at":null,"tle_current":{"epoch":"2026-09-20T01:16:09.138720Z","epoch_age_seconds":58067,"freshness":"FRESH","line1":"1 68956U 26099F   26263.05288355  .00015985  00000+0  48304-3 0  9994","line2":"2 68956  53.1565  78.0276 0001045  74.2367 285.8751 15.34411969 21833","mean_motion":15.34411969,"eccentricity":0.0001045,"inclination_deg":53.1565,"raan_deg":78.0276,"arg_perigee_deg":74.2367,"mean_anomaly_deg":285.8751,"bstar":0.00048304,"rev_number":2183,"period_min":93.847026032941,"perigee_km":461.9528019604,"apogee_km":463.3825301356,"semimajor_km":6840.804666048,"source":"CELESTRAK","updated_at":"2026-09-20T09:00:44.052405Z"}}}